NOAA 16 DEB, 42393

Orbit data source: Space-Track

NOAA 16 DEB, 42393 is space debris in SSO originally from a launch on Thu, 21 Sep 2000 UTC launched from the Air Force Western Test Range (AFWTR). Debris objects in space refer to the collection of defunct objects orbiting the Earth. Examples of debris include non-operational satellites, rocket bodies, and fragments generated from explosions, collisions, or faulty payload assembly.

Loading next visibility...
Identifier
42393, 2000-055SM
Orbit
SSO
Country
Flag of USUS
Related business
Manufacturer
Unknown
Mission
Spacecraft
Bus & Motor
Unknown
Mass
Unknown
Launch date (UTC)
2000-09-21 (25 years ago)
Launch vehicle
Unknown
Launch site
Air Force Western Test Range (AFWTR)
Object type
Payload
Rocket body
Debris
Shape & HBR
Unknown shape, 0.1 m
Radar Cross Section
Small (<0.1 m²)

Expand to show TLE details & history
Last TLE update: 2 days ago

TLE from 2 days ago
0 NOAA 16 DEB
1 42393U 00055SM  25298.97734335  .00008634  00000-0  36664-2 0  9996
2 42393  98.9262  22.5101 0043230 214.2206 145.6186 14.25027006495858
Epoch: 2025-10-25T23:27Z
TLE epoch observation values (Epoch: 2025-10-25T23:27:22.465Z)
Latitude
0.00007°
Longitude
-3.93367°
Altitude
837.004 km
Speed
7.421 km/s
True Right ascension
01h 30m 02s
True Declination
0° 00' 00"
Sunlit
Object was in full shadow at epoch
Visualization orbit readout
Latitude
Unknown
Longitude
Unknown
Altitude
Unknown
Speed
Unknown
Apparent Right ascension
Unknown
Apparent Declination
Unknown
Sunlit
N/A
Visualization observer readout
Local Sidereal Time
07:02:58
Azimuth
Unknown
Elevation
Unknown
Doppler factor
Unknown
Orbital elements
Apogee altitude
836.619 km
Perigee altitude
774.509 km
Semi-major axis
7,183.701 km
Eccentricity
0.00432
Inclination
98.9262°
RAAN
22.5101°
Arg. of periapsis
214.2206°
True anomaly
145.8971°
Mean anomaly
145.6186°
Eccentric anomaly
145.75797°
Mean motion
3.56468 °/min
Orbital period
100.99 mins
BSTAR
0.0036664
Loading maneuver chart data...
Computing Atmospheric mass density...
Loading historical data...
Loading historical data...
Loading historical data...
Loading historical data...
Loading historical data...
Loading historical data...
Loading historical data...

Documentation

Showing up to 5 results
|